{"data":{"norad_id":66189,"intl_designator":"2025-243N","name":"STARLINK-34694","alt_names":[],"object_type":"PAYLOAD","status":"ACTIVE","operator":null,"country":"US","launch_date":"2025-10-26","launch_site_code":"AFETR","launch_vehicle":null,"mission":null,"orbit_class":"UNKNOWN","rcs_meters":null,"size_class":null,"mass_kg":null,"dimensions":null,"purposes":["comms"],"wikipedia_slug":null,"has_3d_model":false,"image_url":null,"decayed_at":null,"tle_current":{"epoch":"2026-05-24T17:11:55.124736Z","epoch_age_seconds":93456,"freshness":"FRESH","line1":"1 66189U 25243N   26144.71661024  .00024565  00000+0  83879-3 0  9999","line2":"2 66189  53.1579 252.1306 0001029  81.3617 278.7501 15.30198755 32299","mean_motion":15.30198755,"eccentricity":0.0001029,"inclination_deg":53.1579,"raan_deg":252.1306,"arg_perigee_deg":81.3617,"mean_anomaly_deg":278.7501,"bstar":0.00083879,"rev_number":3229,"period_min":94.105422272416,"perigee_km":474.51357645697,"apogee_km":475.92399707789,"semimajor_km":6853.3557867674,"source":"CELESTRAK","updated_at":"2026-05-25T13:38:21.119986Z"}}}